Location: Leipzig
(51.3397°N, 12.3731°E)
Time: 19:36:52
(UTC+01:00)

ARIANE 6 FM1 Upper Stage - Pass Details

Date: 08 December 2025
Orbit: 522 x 610 km, 62.0° (Epoch: 19 January)

Event Time Altitude Azimuth Distance (km) Brightness Sun altitude
Rises 17:28:07 0° 299° (WNW) 2,666 6.7 -12.5°
Reaches altitude 10° 17:31:16 10° 272° (W) 1,781 6.4 -12.9°
Maximum altitude 17:33:12 13° 243° (WSW) 1,586 6.3 -13.2°
Drops below altitude 10° 17:35:09 10° 214° (SW) 1,792 6.1 -13.5°
Sets 17:38:21 0° 187° (S) 2,697 6.5 -14.0°
